| time (UTC) | temp C | wind direction | speed KPH | gust KPH | rain 1hr cm | rain 24hr cm | rain mn cm | humidity % | barometer mb |
| 20260503190101 | 15 | 83 | 3.2 | 4.8 | 0.00 | 0.00 | 0.00 | 38 | 1014.6 |
| 20260503185040 | 15 | 47 | 3.2 | 8.0 | 0.00 | 0.00 | 0.00 | 38 | 1014.3 |
| 20260503184021 | 15 | 23 | 3.2 | 9.7 | 0.00 | 0.00 | 0.00 | 37 | 1014.6 |
| 20260503183102 | 15 | 82 | 3.2 | 8.0 | 0.00 | 0.00 | 0.00 | 39 | 1014.9 |
| 20260503182042 | 13 | 39 | 3.2 | 8.0 | 0.00 | 0.00 | 0.00 | 40 | 1015.3 |
| 20260503181042 | 13 | 80 | 3.2 | 9.7 | 0.00 | 0.00 | 0.00 | 41 | 1015.8 |
| 20260503180104 | 13 | 117 | 3.2 | 8.0 | 0.00 | 0.00 | 0.00 | 40 | 1015.8 |
| 20260503175047 | 13 | 168 | 3.2 | 8.0 | 0.00 | 0.00 | 0.00 | 39 | 1016.0 |
| 20260503174055 | 13 | 93 | 3.2 | 8.0 | 0.00 | 0.00 | 0.00 | 38 | 1016.1 |
| 20260503173055 | 13 | 93 | 3.2 | 9.7 | 0.00 | 0.00 | 0.00 | 37 | 1016.2 |
| 20260503172118 | 15 | 103 | 3.2 | 4.8 | 0.00 | 0.00 | 0.00 | 36 | 1016.4 |
| 20260503171058 | 15 | 94 | 3.2 | 8.0 | 0.00 | 0.00 | 0.00 | 36 | 1016.4 |
| 20260503160113 | 15 | 36 | 4.8 | 9.7 | 0.00 | 0.00 | 0.00 | 36 | 1017.2 |
| 20260503150116 | 13 | 89 | 1.6 | 8.0 | 0.00 | 0.00 | 0.00 | 37 | 1017.6 |
| 20260503131113 | 10 | 146 | 1.6 | 4.8 | 0.00 | 0.00 | 0.00 | 46 | 1018.0 |
| 20260503130113 | 9 | 154 | 1.6 | 3.2 | 0.00 | 0.00 | 0.00 | 48 | 1018.0 |
| 20260503110121 | 2 | 0.0 | 0.0 | 0.00 | 0.00 | 0.00 | 72 | 1017.6 | |
| 20260503100105 | 1 | 0.0 | 0.0 | 0.00 | 0.00 | 0.00 | 73 | 1017.2 | |
| 20260503090109 | 1 | 0.0 | 0.0 | 0.00 | 0.00 | 0.00 | 73 | 1017.2 | |
| 20260503081032 | 2 | 0.0 | 0.0 | 0.00 | 0.00 | 0.00 | 72 | 1017.3 | |
| 20260503080113 | 2 | 0.0 | 0.0 | 0.00 | 0.00 | 0.00 | 73 | 1017.4 | |
| 20260503072055 | 1 | 0.0 | 0.0 | 0.00 | 0.00 | 0.00 | 80 | 1017.4 | |
| 20260503071106 | 1 | 0.0 | 0.0 | 0.00 | 0.00 | 0.00 | 81 | 1017.2 | |
| 20260503070106 | 1 | 0.0 | 0.0 | 0.00 | 0.00 | 0.00 | 81 | 1017.4 | |
| 20260503055101 | 0 | 0.0 | 0.0 | 0.00 | 0.00 | 0.00 | 79 | 1017.9 | |
| 20260503054041 | 0 | 0.0 | 0.0 | 0.00 | 0.00 | 0.00 | 79 | 1018.1 | |
| 20260503053054 | 1 | 0.0 | 0.0 | 0.00 | 0.00 | 0.00 | 78 | 1017.9 | |
| 20260503052033 | 1 | 0.0 | 0.0 | 0.00 | 0.00 | 0.00 | 78 | 1018.0 | |
| 20260503051114 | 1 | 0.0 | 0.0 | 0.00 | 0.00 | 0.00 | 78 | 1017.9 | |
| 20260503050124 | 1 | 0.0 | 0.0 | 0.00 | 0.00 | 0.00 | 77 | 1018.0 | |
| 20260503045034 | 1 | 0.0 | 0.0 | 0.00 | 0.00 | 0.00 | 76 | 1018.1 | |
| 20260503044136 | 1 | 0.0 | 0.0 | 0.00 | 0.00 | 0.00 | 76 | 1018.0 | |
| 20260503043056 | 1 | 0.0 | 0.0 | 0.00 | 0.00 | 0.00 | 75 | 1018.1 | |
| 20260503042138 | 1 | 0.0 | 0.0 | 0.00 | 0.00 | 0.00 | 74 | 1018.0 | |
| 20260503041048 | 1 | 0.0 | 0.0 | 0.00 | 0.00 | 0.00 | 74 | 1018.0 | |
| 20260503040027 | 1 | 0.0 | 0.0 | 0.00 | 0.00 | 0.00 | 73 | 1018.0 | |
| 20260503035109 | 2 | 0.0 | 0.0 | 0.00 | 0.00 | 0.00 | 72 | 1018.0 | |
| 20260503034039 | 2 | 0.0 | 0.0 | 0.00 | 0.00 | 0.00 | 71 | 1018.1 | |
| 20260503033100 | 2 | 0.0 | 0.0 | 0.00 | 0.00 | 0.00 | 71 | 1018.1 | |
| 20260503032142 | 2 | 0.0 | 0.0 | 0.00 | 0.00 | 0.00 | 72 | 1018.1 | |
| 20260503031051 | 2 | 0.0 | 0.0 | 0.00 | 0.00 | 0.00 | 70 | 1018.1 | |
| 20260503030031 | 2 | 0.0 | 0.0 | 0.00 | 0.00 | 0.00 | 69 | 1018.1 | |
| 20260503025113 | 2 | 0.0 | 0.0 | 0.00 | 0.00 | 0.00 | 69 | 1018.1 | |
| 20260503024053 | 2 | 0.0 | 0.0 | 0.00 | 0.00 | 0.00 | 67 | 1018.1 | |
| 20260503023033 | 3 | 0.0 | 0.0 | 0.00 | 0.00 | 0.00 | 66 | 1018.0 | |
| 20260503022115 | 3 | 0.0 | 0.0 | 0.00 | 0.00 | 0.00 | 63 | 1018.0 | |
| 20260503021055 | 3 | 0.0 | 0.0 | 0.00 | 0.00 | 0.00 | 62 | 1018.0 | |
| 20260503020055 | 3 | 0.0 | 0.0 | 0.00 | 0.00 | 0.00 | 60 | 1017.8 | |
| 20260503015117 | 4 | 0.0 | 0.0 | 0.00 | 0.00 | 0.00 | 58 | 1017.7 | |
| 20260503014059 | 4 | 0.0 | 0.0 | 0.00 | 0.00 | 0.00 | 55 | 1017.7 | |
| 20260503013037 | 5 | 0.0 | 0.0 | 0.00 | 0.00 | 0.00 | 53 | 1017.6 | |
| 20260503012017 | 5 | 0.0 | 0.0 | 0.00 | 0.00 | 0.00 | 50 | 1017.7 | |
| 20260503011059 | 6 | 0.0 | 0.0 | 0.00 | 0.00 | 0.00 | 47 | 1017.5 | |
| 20260503010039 | 7 | 0.0 | 0.0 | 0.00 | 0.00 | 0.00 | 44 | 1017.5 | |
| 20260503005019 | 7 | 0.0 | 0.0 | 0.00 | 0.00 | 0.00 | 39 | 1017.5 | |
| 20260503004101 | 8 | 0.0 | 0.0 | 0.00 | 0.00 | 0.00 | 38 | 1017.5 | |
| 20260503003101 | 8 | 161 | 0.0 | 1.6 | 0.00 | 0.00 | 0.00 | 37 | 1017.5 |
| 20260503002021 | 8 | 0.0 | 0.0 | 0.00 | 0.00 | 0.00 | 36 | 1017.4 | |
| 20260503001103 | 8 | 0.0 | 0.0 | 0.00 | 0.00 | 0.00 | 36 | 1017.4 | |
| 20260503000103 | 8 | 161 | 0.0 | 3.2 | 0.00 | 0.00 | 0.00 | 34 | 1017.4 |
| 20260502235023 | 9 | 181 | 1.6 | 4.8 | 0.00 | 0.00 | 0.00 | 35 | 1017.2 |
| 20260502234105 | 9 | 220 | 0.0 | 1.6 | 0.00 | 0.00 | 0.00 | 34 | 1017.2 |
| 20260502233045 | 9 | 244 | 0.0 | 1.6 | 0.00 | 0.00 | 0.00 | 34 | 1017.1 |
| 20260502232025 | 9 | 199 | 1.6 | 3.2 | 0.00 | 0.00 | 0.00 | 34 | 1017.3 |
| 20260502231107 | 10 | 151 | 1.6 | 3.2 | 0.00 | 0.00 | 0.00 | 33 | 1017.3 |
| 20260502230048 | 10 | 144 | 1.6 | 8.0 | 0.00 | 0.00 | 0.00 | 33 | 1017.4 |
| 20260502225027 | 10 | 159 | 1.6 | 3.2 | 0.00 | 0.00 | 0.00 | 34 | 1017.3 |
| 20260502224129 | 10 | 160 | 1.6 | 3.2 | 0.00 | 0.00 | 0.00 | 34 | 1017.5 |
| 20260502223109 | 10 | 198 | 1.6 | 4.8 | 0.00 | 0.00 | 0.00 | 33 | 1017.4 |
| 20260502222029 | 10 | 256 | 1.6 | 9.7 | 0.00 | 0.00 | 0.00 | 34 | 1017.4 |
| 20260502221111 | 10 | 166 | 0.0 | 3.2 | 0.00 | 0.00 | 0.00 | 34 | 1017.4 |
| 20260502220051 | 10 | 237 | 1.6 | 3.2 | 0.00 | 0.00 | 0.00 | 33 | 1017.4 |
| 20260502215031 | 10 | 240 | 3.2 | 8.0 | 0.00 | 0.00 | 0.00 | 33 | 1017.2 |
| 20260502214133 | 10 | 172 | 1.6 | 4.8 | 0.00 | 0.00 | 0.00 | 34 | 1017.2 |
| 20260502213113 | 10 | 170 | 1.6 | 3.2 | 0.00 | 0.00 | 0.00 | 35 | 1017.3 |
| 20260502212033 | 10 | 128 | 1.6 | 8.0 | 0.00 | 0.00 | 0.00 | 32 | 1017.1 |
| 20260502211115 | 11 | 131 | 1.6 | 4.8 | 0.00 | 0.00 | 0.00 | 32 | 1017.2 |
| 20260502210055 | 11 | 162 | 1.6 | 8.0 | 0.00 | 0.00 | 0.00 | 33 | 1017.3 |
| 20260502205055 | 11 | 198 | 1.6 | 3.2 | 0.00 | 0.00 | 0.00 | 32 | 1017.3 |
| 20260502204117 | 11 | 239 | 1.6 | 4.8 | 0.00 | 0.00 | 0.00 | 32 | 1017.2 |
| 20260502203057 | 12 | 162 | 1.6 | 3.2 | 0.00 | 0.00 | 0.00 | 31 | 1017.4 |
| 20260502202057 | 11 | 160 | 3.2 | 8.0 | 0.00 | 0.00 | 0.00 | 32 | 1017.4 |
| 20260502201017 | 12 | 206 | 3.2 | 4.8 | 0.00 | 0.00 | 0.00 | 32 | 1017.5 |
| 20260502200059 | 11 | 223 | 3.2 | 8.0 | 0.00 | 0.00 | 0.00 | 33 | 1017.5 |
| 20260502195039 | 11 | 156 | 1.6 | 4.8 | 0.00 | 0.00 | 0.00 | 32 | 1017.7 |
| 20260502194039 | 12 | 166 | 1.6 | 3.2 | 0.00 | 0.00 | 0.00 | 31 | 1017.7 |
| 20260502193101 | 11 | 142 | 1.6 | 3.2 | 0.00 | 0.00 | 0.00 | 32 | 1017.7 |
| 20260502192041 | 11 | 179 | 1.6 | 4.8 | 0.00 | 0.00 | 0.00 | 34 | 1017.8 |
| 20260502191041 | 11 | 241 | 1.6 | 4.8 | 0.00 | 0.00 | 0.00 | 33 | 1017.7 |